Regional & State Weather Roundups


708 
ASUS41 KOKX 160308
RWROKX
REGIONAL WEATHER ROUNDUP
NATIONAL WEATHER SERVICE NEW YORK NY
1000 PM EST FRI DEC 15 2017
NOTE: "FAIR" INDICATES FEW OR NO CLOUDS BELOW 12,000 FEET WITH NO
SIGNIFICANT WEATHER AND/OR OBSTRUCTIONS TO VISIBILITY.
NYZ071-072-176-178-NJZ106-104-160400-
NEW YORK CITY METRO AREA
  
CITY           SKY/WX    TMP DP  RH WIND       PRES   REMARKS
Central Park   CLEAR     24  18  77 MISG      29.93S                  
Bronx Bot Gard   N/A     25  19  80 W8        29.93R WCI  16          
Bronx Lehman C   N/A     25  19  80 W7          N/A  WCI  17          
LaGuardia APRT PTCLDY    26  18  71 W13       29.92R WCI  15          
Queens College   N/A     27  19  74 W14         N/A  WCI  15          
Kennedy INTL   PTCLDY    25  19  78 W17       29.94R WCI  12          
Breezy Point     N/A    N/A N/A N/A W14G22      N/A                   
Brooklyn Coll    N/A     27  21  80 W8          N/A  WCI  18          
Staten Island    N/A     23  21  93 W5          N/A  WCI  17          
Newark/Liberty PTCLDY    22  18  85 SW8       29.93S WCI  12          
Teterboro      CLEAR     22  17  81 SW7       29.92S WCI  13          
$$
 
NYZ177-179-078>081-160400-
LONG ISLAND NEW YORK
  
CITY           SKY/WX    TMP DP  RH WIND       PRES   REMARKS
Jones Beach      N/A    N/A N/A N/A W12G17      N/A                   
Wantagh          N/A     27  25  93 W7          N/A  WCI  19          
Matinecock PT    N/A    N/A N/A N/A W22         N/A                   
Farmingdale    CLOUDY    25  22  88 W8        29.91R WCI  16          
MacArthur/ISP  CLOUDY    25  23  92 W6        29.89S WCI  18          
Shirley        LGT SNOW  26  25  96 W7        29.89S FOG     WCI  18  
Mt Sinai Harb    N/A    N/A N/A N/A SW2         N/A                   
Westhampton    LGT SNOW  27  24  89 W7        29.89S FOG     WCI  19  
East Hampton   LGT SNOW  28  27  94 NW5       29.85S WCI  23          
Southold         N/A     30  28  93 NW8         N/A  WCI  23          
Montauk          N/A     33  30  88 NW8       29.86R WCI  26          
$$
 
NYZ052-065-067-160400-
HUDSON VALLEY
  
CITY           SKY/WX    TMP DP  RH WIND       PRES   REMARKS
White Plains   PTCLDY    21  18  88 W9        29.87S WCI  11          
Larchmont Harb   N/A    N/A N/A N/A SW10        N/A                   
Croton On Huds   N/A    N/A N/A N/A SW9         N/A                   
Somers           N/A     21  19  93 SW2         N/A                   
Brewster         N/A     21  18  86 S1          N/A                   
Newburgh       MOCLDY    19  18  93 CALM      29.87F                  
Montgomery     MOCLDY    20  16  84 SW6       29.86S WCI  12          
Otisville        N/A     19  16  86 S2          N/A                   
Warwick          N/A     21  18  86 W6          N/A  WCI  14          
Suffern          N/A     21  18  86 SW2         N/A                   
Poughkeepsie   MOCLDY    22  16  78 SW8       29.88F WCI  12          
Albany         FLURRIES  21  14  74 S7        29.85F WCI  12          
$$
 
NJZ001-105-106-008-010-013-015-019>022-104-160400-
NEW JERSEY
  
CITY           SKY/WX    TMP DP  RH WIND       PRES   REMARKS
Newark/Liberty PTCLDY    22  18  85 SW8       29.93S WCI  12          
Teterboro      CLEAR     22  17  81 SW7       29.92S WCI  13          
Caldwell       PTCLDY    19  17  92 SW3       29.92S                  
Somerville     MOCLDY    16  15  96 CALM      29.92S                  
Linden         FAIR      23  19  87 CALM      29.94S                  
Perth Amboy      N/A    N/A N/A N/A W8          N/A                   
Sussex         CLOUDY    18  16  92 SW3       29.87F                  
Andover        NOT AVBL                                               
Trenton        PTCLDY    20  18  92 SW6       29.94S WCI  12          
Millville      PTCLDY    18  18 100 W5        29.99R FOG     WCI  11  
Atlantic City  CLEAR     23  21  92 W7        29.98R WCI  15          
Wrightstown    CLEAR     20  18  92 W3        29.93S                  
Toms River     PTCLDY    20  18  92 W6        29.97R WCI  12          
Belmar         PTCLDY    19  17  92 W6        29.95R WCI  11          
$$
 
PAZ047>061-062-071-160400-
EASTERN PENNSYLVANIA
  
CITY           SKY/WX    TMP DP  RH WIND       PRES   REMARKS
Philadelphia   PTCLDY    24  19  81 W10       29.98S WCI  14          
Allentown      MOCLDY    22  17  81 SW8       29.92S WCI  12          
Scranton       CLOUDY    21  17  84 SW5       29.85R WCI  15          
$$
CTZ002-004>006-009-010-012-RIZ004-006-007-MAZ004-011-015-160400-
SOUTHERN NEW ENGLAND
 IN CT
  
CITY           SKY/WX    TMP DP  RH WIND       PRES   REMARKS
Bradley INTL   CLOUDY    21  19  92 SW3       29.85F                  
Hartford       CLOUDY    22  20  92 S3        29.87F                  
Danbury        PTCLDY    21  17  84 W7        29.87S WCI  12          
Wtrbury/Oxford CLOUDY    19  17  92 W3        29.84S                  
Norwalk Harbor   N/A    N/A N/A N/A W9          N/A                   
Bridgeport     CLOUDY    24  20  84 W10       29.89S WCI  14          
Meriden        CLOUDY    21  19  92 CALM      29.87F                  
New Haven      CLOUDY    26  21  81 NW8       29.88S HAZE    WCI  18  
Chester        LGT SNOW  23  21  93 CALM      29.84F                  
Groton         LGT SNOW  24  21  88 N6        29.85S FOG     WCI  17  
Wilimantic     LGT SNOW  22  19  89 CALM      29.86F FOG              
 IN RI
  
CITY           SKY/WX    TMP DP  RH WIND       PRES   REMARKS
Providence     LGT SNOW  24  22  91 N3        29.85F FOG              
Block Island   LGT SNOW  30  29  96 NW7       29.84R FOG     WCI  23  
Westerly       LGT SNOW  25  23  92 NW7       29.85S VSB 3/4 WCI  17  
 IN MA
  
CITY           SKY/WX    TMP DP  RH WIND       PRES   REMARKS
Boston         FLURRIES  25  17  72 W9        29.85F WCI  15          
Worcester      CLOUDY    18  14  84 SW9       29.78F WCI   7          
Westfield      CLOUDY    21  19  92 CALM      29.84F                  
Provincetown   LGT SNOW  27  24  89 CALM      29.84S FOG              
Nantucket      LGT SNOW  32  32 100 N6        29.79F FOG     WCI  26  
$$
ANZ330-335-338-340-345-350-353-355-160400-
COASTAL MARINE OBSERVATIONS
  
STATION/POSITION TIME  SKY/WX   TEMP    WIND        PRES    VSBY  WAVE
                                AIR SEA DIR/SP/G                  HT/PER
                 (UTC)          (F)     (DEG/KT/KT) (MB)    (MI)  (FT/S)
NY HARB ENTRANCE 0150            30 50  280/ 14/ 17 1012.5          2/ 8
20 S FIRE ISLAND 0250            33 51  290/ 19/ 23 1012.1          2/ 9
GREAT SOUTH BAY  NOT AVBL
HUDSON CANYON    0150            38 56  320/ 21/ 25 1010.5          3/ 4
KINGS POINT      0224            26 42  330/ 13/ 15 1013.8
EXECUTION ROCKS  0230            27     260/ 12/ 17   N/A
WESTERN LI SOUND NOT AVBL
CENTRAL LI SOUND NOT AVBL
ROBBINS REEF     0224            24     270/ 13/ 15 1014.0
$$
>>>>>>>>>>>>>>>>>>>>>>>>>>>> KEY <<<<<<<<<<<<<<<<<<<<<<<<<<<
>                                                          <
>     SKY/WX - Sky Condition/Present Weather               <
>     TMP    - Temperature in Fahrenheit                   <
>     DP     - Dew Point in Fahrenheit                     <
>     RH     - Relative Humidity in Percent                <
>     WIND   - Direction (from) and Speed in MPH           <
>     PRES   - Mean Sea Level Pressure (inches of Hg)      <
>     WCI    - Wind Chill Index                            <
>     VSB    - VISIBILITY IN MILES                         <
>     HX     - HEAT INDEX                                  <
>     TC     - TEMPERATURE IN CELSIUS                      <
>     VRB    - VARIABLE WIND DIRECTION                     <
>                                                          <
>>>>>>>>>>>>>>>>>>>>>>>>>>>> KEY <<<<<<<<<<<<<<<<<<<<<<<<<<<